Home   Weather   Exeter   Past weeks

Flag for United Kingdom Past Weather in Exeter, England, United Kingdom — Yesterday and Last 2 Weeks

Now
61 °F

Passing clouds.


Feels Like: 61 °F
Forecast: 47 / 60 °F
Wind: 10 mph from West

Location: Exeter Airport

Current Time: Sep 30, 2016 at 6:01:50 PM

Latest Report: Sep 30, 2016 at 5:20 PM


Visibility: N/A

Pressure: 29.83 "Hg

Humidity: 59%

Dew Point: 46 °F

Location of ExeterLocation

Past Weather in Exeter — Graph

°F

Exeter Temperature Yesterday

Maximum temperature yesterday: 64 °F (at 1:20 AM)
Minimum temperature yesterday: 52 °F (at 9:50 PM)
Average temperature yesterday: 60 °F

High & Low Weather Summary for the Past Weeks

 TemperatureHumidityPressure
High73 °F (Sep 15, 4:20 PM)100% (Sep 18, 5:20 AM)30.30 "Hg (Sep 18, 5:20 AM)
Low43 °F (Sep 23, 7:20 AM)49% (Sep 23, 2:50 PM)29.74 "Hg (Sep 24, 11:50 PM)
Average59 °F81%30.09 "Hg
* Reported Sep 15 4:20 PM — Sep 30 4:50 PM, Exeter, Weather by CustomWeather, © 2016

Note: Actual official high and low records may vary slightly from our data, if they occured in-between our weather recording intervals... More about our weather records

Advertising

Exeter Weather History for the Previous 24 Hours

Scroll right to see more
 ConditionsComfort  
Time TempWeatherWind HumidityBarometerVisibility
4:50 PM
Fri, Sep 30
63 °FPassing clouds.13 mph59%29.86 "HgN/A
4:20 PM61 °FScattered clouds.12 mph59%29.86 "HgN/A
3:50 PM63 °FScattered clouds.9 mph59%29.86 "HgN/A
3:20 PM61 °FScattered clouds.10 mph63%29.86 "HgN/A
2:50 PM64 °FScattered showers. Scattered clouds.12 mph56%29.86 "HgN/A
2:20 PM63 °FScattered clouds.12 mph59%29.89 "HgN/A
1:50 PM61 °FScattered clouds.9 mph68%29.89 "HgN/A
1:20 PM59 °FScattered showers. Scattered clouds.10 mph77%29.89 "HgN/A
12:50 PM63 °FScattered showers. Scattered clouds.7 mph59%29.89 "HgN/A
12:20 PM61 °FPassing clouds.10 mph63%29.89 "HgN/A
11:50 AM61 °FPassing clouds.15 mph59%29.92 "HgN/A
11:20 AM61 °FScattered clouds.15 mph63%29.92 "HgN/A
10:50 AM59 °FPassing clouds.15 mph68%29.92 "HgN/A
10:20 AM59 °FPassing clouds.12 mph68%29.92 "HgN/A
9:50 AM57 °FPassing clouds.9 mph72%29.92 "HgN/A
9:20 AM57 °FPassing clouds.9 mph72%29.92 "HgN/A
8:50 AM55 °FPassing clouds.8 mph77%29.92 "HgN/A
8:20 AM54 °FPassing clouds.7 mph82%29.92 "HgN/A
7:50 AM54 °FPassing clouds.7 mph82%29.92 "HgN/A
7:20 AM54 °FPassing clouds.9 mph88%29.92 "HgN/A
6:50 AM52 °FPassing clouds.8 mph88%29.92 "HgN/A
6:20 AM52 °FPassing clouds.7 mph88%29.92 "HgN/A
5:50 AM52 °FClear.7 mph88%29.92 "Hg10 mi
5:20 AM50 °FClear.7 mph94%29.92 "Hg10 mi
2:20 AM54 °FClear.7 mph82%29.95 "Hg10 mi
1:50 AM54 °FClear.5 mph82%29.95 "Hg10 mi
12:50 AM52 °FClear.7 mph88%29.98 "Hg10 mi
12:20 AM52 °FClear.5 mph88%29.98 "Hg10 mi
11:50 PM
Thu, Sep 29
52 °FClear.6 mph88%29.98 "Hg10 mi
11:20 PM52 °FClear.3 mph88%29.98 "Hg10 mi
10:50 PM52 °FPassing clouds.3 mph88%30.01 "HgN/A
10:20 PM52 °FPassing clouds.5 mph88%30.01 "HgN/A
9:50 PM52 °FPassing clouds.6 mph88%30.01 "HgN/A
9:20 PM54 °FPassing clouds.3 mph82%30.01 "HgN/A
8:50 PM54 °FPassing clouds.2 mph82%30.01 "HgN/A
8:20 PM55 °FPassing clouds.3 mph77%30.01 "HgN/A
7:50 PM57 °FPassing clouds.8 mph72%30.01 "HgN/A
7:20 PM57 °FPassing clouds.10 mph72%30.01 "HgN/A
6:50 PM57 °FPassing clouds.9 mph72%30.01 "HgN/A
6:20 PM59 °FPassing clouds.12 mph68%30.01 "HgN/A
Weather by CustomWeather, © 2016

See weather overviewHow to use our weather pages